TimeAKDT,TemperatureF,Dew PointF,Humidity,Sea Level PressureIn,VisibilityMPH,Wind Direction,Wind SpeedMPH,Gust SpeedMPH,PrecipitationIn,Events,Conditions,WindDirDegrees,DateUTC
12:53 AM,36.0,35.1,97,30.28,10.0,Calm,Calm,-,N/A,,Overcast,0,2012-10-08 08:53:00
1:21 AM,37.4,35.6,93,30.28,10.0,Calm,Calm,-,0.00,Rain,Light Rain,0,2012-10-08 09:21:00
1:30 AM,37.4,35.6,93,30.27,10.0,Calm,Calm,-,0.00,Rain,Light Rain,0,2012-10-08 09:30:00
1:53 AM,37.9,35.1,89,30.28,10.0,NNE,6.9,-,0.00,Rain,Light Rain,30,2012-10-08 09:53:00
2:09 AM,37.4,35.6,93,30.27,10.0,NE,6.9,-,0.00,Rain,Light Rain,50,2012-10-08 10:09:00
2:53 AM,37.0,35.1,93,30.29,10.0,ENE,6.9,-,0.00,,Overcast,60,2012-10-08 10:53:00
3:33 AM,37.4,35.6,93,30.27,10.0,NE,8.1,-,0.00,Rain,Light Rain,50,2012-10-08 11:33:00
3:53 AM,37.0,35.1,93,30.29,10.0,Calm,Calm,-,0.01,Rain,Light Rain,0,2012-10-08 11:53:00
4:53 AM,36.0,34.0,93,30.29,10.0,NE,4.6,-,0.01,Rain,Light Rain,50,2012-10-08 12:53:00
5:42 AM,35.6,35.6,100,30.28,10.0,Calm,Calm,-,0.01,Rain,Light Rain,0,2012-10-08 13:42:00
5:53 AM,35.1,34.0,96,30.29,10.0,Calm,Calm,-,0.01,,Overcast,0,2012-10-08 13:53:00
6:53 AM,34.0,34.0,100,30.30,10.0,Calm,Calm,-,0.00,,Overcast,0,2012-10-08 14:53:00
7:53 AM,34.0,33.1,96,30.31,10.0,East,3.5,-,N/A,,Overcast,90,2012-10-08 15:53:00
8:53 AM,33.1,32.0,96,30.32,10.0,Calm,Calm,-,N/A,,Overcast,0,2012-10-08 16:53:00
9:23 AM,33.8,33.8,100,30.32,0.8,NE,3.5,-,0.00,Rain,Light Rain,40,2012-10-08 17:23:00
9:30 AM,33.8,33.8,100,30.32,0.8,Calm,Calm,-,0.00,Rain,Light Rain,0,2012-10-08 17:30:00
9:53 AM,33.1,33.1,100,30.34,0.2,Calm,Calm,-,0.00,Fog-Rain,Light Rain,0,2012-10-08 17:53:00
10:53 AM,33.1,33.1,100,30.35,1.5,Calm,Calm,-,0.00,,Overcast,0,2012-10-08 18:53:00
11:05 AM,33.8,33.8,100,30.33,3.0,Calm,Calm,-,N/A,,Overcast,0,2012-10-08 19:05:00
11:22 AM,33.8,33.8,100,30.34,10.0,Calm,Calm,-,N/A,,Scattered Clouds,0,2012-10-08 19:22:00
11:53 AM,34.0,34.0,100,30.36,10.0,Calm,Calm,-,0.00,Rain,Light Rain,0,2012-10-08 19:53:00
12:53 PM,37.0,32.0,82,30.38,10.0,ENE,4.6,-,0.00,,Clear,60,2012-10-08 20:53:00
1:53 PM,37.9,30.9,76,30.38,10.0,NE,8.1,-,N/A,,Clear,40,2012-10-08 21:53:00
2:14 PM,37.4,30.2,75,30.38,10.0,ENE,5.8,-,N/A,,Mostly Cloudy,60,2012-10-08 22:14:00
2:27 PM,39.2,30.2,70,30.38,10.0,NE,6.9,-,N/A,,Scattered Clouds,40,2012-10-08 22:27:00
2:53 PM,39.0,30.0,70,30.39,10.0,NNE,9.2,-,N/A,,Scattered Clouds,30,2012-10-08 22:53:00
3:53 PM,39.0,30.0,70,30.40,10.0,NE,9.2,-,N/A,,Partly Cloudy,40,2012-10-08 23:53:00
4:53 PM,37.9,28.9,70,30.40,10.0,NE,9.2,-,N/A,,Mostly Cloudy,40,2012-10-09 00:53:00
5:26 PM,37.4,28.4,70,30.38,10.0,NE,8.1,-,N/A,,Overcast,40,2012-10-09 01:26:00
5:53 PM,37.9,28.9,70,30.39,10.0,NE,9.2,-,N/A,,Overcast,50,2012-10-09 01:53:00
6:39 PM,37.4,28.4,70,30.39,10.0,NE,6.9,-,N/A,,Scattered Clouds,50,2012-10-09 02:39:00
6:53 PM,37.0,28.9,73,30.41,10.0,ENE,5.8,-,N/A,,Clear,60,2012-10-09 02:53:00
7:53 PM,36.0,28.0,73,30.42,10.0,NNE,8.1,-,N/A,,Partly Cloudy,30,2012-10-09 03:53:00
8:53 PM,35.1,28.0,76,30.43,10.0,NE,6.9,-,N/A,,Partly Cloudy,40,2012-10-09 04:53:00
9:05 PM,35.6,28.4,75,30.42,10.0,NNE,8.1,-,N/A,,Mostly Cloudy,30,2012-10-09 05:05:00
9:53 PM,35.1,28.0,76,30.45,10.0,NNE,5.8,-,N/A,,Mostly Cloudy,20,2012-10-09 05:53:00
10:53 PM,35.1,27.0,72,30.45,10.0,NNE,5.8,-,N/A,,Mostly Cloudy,20,2012-10-09 06:53:00
11:04 PM,35.6,26.6,70,30.44,10.0,North,5.8,-,N/A,,Mostly Cloudy,10,2012-10-09 07:04:00
11:21 PM,33.8,26.6,75,30.44,10.0,NNE,5.8,-,N/A,,Scattered Clouds,20,2012-10-09 07:21:00